Location: Gellin
(53.4498°N, 14.3207°E)
Time: 00:49:01
(UTC+00:00)

Cosmos 192 - Pass Details

Date: 03 March 2021
Orbit: 700 x 714 km, 74.0° (Epoch: 11 April)

Event Time Altitude Azimuth Distance (km) Brightness Sun altitude
Rises 19:16:45 0° 203° (SSW) 3,077 7.7 -23.1°
Reaches altitude 10° 19:19:03 10° 203° (SSW) 2,165 6.8 -23.4°
Maximum altitude 19:23:57 86° 116° (ESE) 713 4.2 -24.1°
Drops below altitude 10° 19:28:53 10° 27° (NNE) 2,187 6.8 -24.7°
Sets 19:31:14 0° 27° (NNE) 3,113 7.6 -25.0°
